Flag for Greece Weather past 2 weeks in Chania, Crete, Greece

Now
54 °F

Passing clouds.


Feels Like: 50 °F
Forecast: 53 / 66 °F
Wind: 12 mph from Northwest

Location: Souda Airport

Current Time: Apr 2, 2015 at 1:38:39 AM

Latest Report: Apr 2, 2015 at 12:50 AM


Visibility: N/A

Pressure: 29.83 "Hg

Humidity: 88%

Dew point: 50 °F

Location of ChaniaLocation

Historic Weather in Chania — Graph

°F

Chania temperature yesterday

Maximum temperature yesterday: 70 °F (at 2:50 PM)
Minimum temperature yesterday: 50 °F (at 3:50 AM)
Average temperature yesterday: 60 °F

Past Weeks' High & Low Weather Summary

 TemperatureHumidityPressure
High77 °F (Mar 23, 12:50 PM)100% (Mar 25, 9:50 AM)30.21 "Hg (Mar 25, 9:50 AM)
Low41 °F (Mar 22, 6:20 AM)35% (Mar 26, 4:50 AM)29.59 "Hg (Mar 28, 5:20 AM)
Average57 °F71%29.93 "Hg
* Reported Mar 17 10:20 PM — Apr 1 11:50 PM, Chania, Weather by CustomWeather, © 2015

Note: Actual official high and low records may vary slightly from our data, if they occured in-between our weather recording intervals... More about our weather records

Advertising

Chania weather history for previous 24 hours

 ConditionsComfort  
Time TempWeatherWind HumidityBarometerVisibility
11:50 PM
Wed, Apr 1
54 °FPassing clouds.5 mph88%29.83 "HgN/A
11:20 PM57 °FPassing clouds.5 mph88%29.83 "HgN/A
10:50 PM57 °FPassing clouds.5 mph88%29.83 "HgN/A
10:20 PM59 °FPassing clouds.3 mph82%29.83 "HgN/A
9:50 PM59 °FPassing clouds.3 mph82%29.83 "HgN/A
9:20 PM59 °FPassing clouds.8 mph82%29.80 "HgN/A
8:50 PM59 °FPassing clouds.8 mph82%29.80 "HgN/A
8:20 PM64 °FPassing clouds.15 mph73%29.80 "HgN/A
7:50 PM64 °FPassing clouds.15 mph73%29.80 "HgN/A
7:20 PM66 °FPassing clouds.20 mph64%29.80 "HgN/A
6:50 PM66 °FPassing clouds.20 mph64%29.80 "HgN/A
6:20 PM68 °FPassing clouds.16 mph60%29.80 "HgN/A
5:50 PM68 °FPassing clouds.16 mph60%29.80 "HgN/A
5:20 PM68 °FPassing clouds.16 mph60%29.80 "HgN/A
4:50 PM68 °FPassing clouds.16 mph60%29.80 "HgN/A
4:20 PM70 °FPassing clouds.18 mph57%29.83 "HgN/A
3:50 PM70 °FPassing clouds.18 mph57%29.83 "HgN/A
3:20 PM70 °FPassing clouds.14 mph57%29.83 "HgN/A
2:50 PM70 °FPassing clouds.14 mph57%29.83 "HgN/A
2:20 PM68 °FPassing clouds.18 mph60%29.86 "HgN/A
1:50 PM68 °FPassing clouds.18 mph60%29.86 "HgN/A
1:20 PM64 °FPassing clouds.21 mph73%29.86 "HgN/A
12:50 PM64 °FPassing clouds.18 mph73%29.86 "HgN/A
12:20 PM64 °FPassing clouds.16 mph68%29.89 "HgN/A
11:50 AM64 °FPassing clouds.21 mph68%29.89 "HgN/A
11:20 AM64 °FPassing clouds.14 mph64%29.89 "HgN/A
10:50 AM64 °FPassing clouds.14 mph64%29.89 "HgN/A
10:20 AM64 °FPassing clouds.16 mph56%29.86 "HgN/A
9:50 AM64 °FPassing clouds.16 mph56%29.86 "HgN/A
9:20 AM64 °FPassing clouds.18 mph56%29.86 "HgN/A
8:50 AM63 °FPassing clouds.14 mph59%29.86 "HgN/A
8:20 AM61 °FPassing clouds.18 mph59%29.86 "HgN/A
7:50 AM57 °FPassing clouds.14 mph63%29.86 "HgN/A
7:20 AM54 °FPassing clouds.14 mph58%29.86 "HgN/A
6:50 AM54 °FPassing clouds.9 mph58%29.86 "HgN/A
6:20 AM50 °FPassing clouds.5 mph67%29.86 "HgN/A
5:50 AM50 °FPassing clouds.5 mph67%29.86 "HgN/A
5:20 AM50 °FPassing clouds.No wind71%29.86 "HgN/A
4:50 AM50 °FPassing clouds.No wind71%29.86 "HgN/A
4:20 AM50 °FPassing clouds.No wind76%29.89 "HgN/A
3:50 AM50 °FPassing clouds.No wind76%29.89 "HgN/A
3:20 AM52 °FPassing clouds.5 mph77%29.92 "HgN/A
2:50 AM52 °FPassing clouds.5 mph77%29.92 "HgN/A
2:20 AM52 °FPassing clouds.7 mph77%29.92 "HgN/A
1:50 AM52 °FPassing clouds.7 mph77%29.92 "HgN/A
1:20 AM52 °FPassing clouds.5 mph77%29.95 "HgN/A
Weather by CustomWeather, © 2015

See weather overviewHow to use our weather pages